Tracking 25963 objects as of 13-Aug-2022
HD Live streaming from Space Station
objects crossing your sky now

NUSAT-10 CAROLINE

Track NUSAT-10 CAROLINE now!
10-day predictions


NORAD ID: 46832
Int'l Code: 2020-079F
Perigee: 450.5 km
Apogee: 462.2 km
Inclination: 97.2 °
Period: 93.6 minutes
Semi major axis: 6827 km
RCS: Unknown
Launch date: November 6, 2020
Source: Argentina (ARGN)
Launch site: Taiyaun Space Center, China (TSC)
aabbcc
Your satellite tracking list
Your tracking list is empty




NASA's NSSDC Master Catalog

Two Line Element Set (TLE):
1 46832U 20079F   22224.83830286  .00012643  00000-0  32945-3 0  9993
2 46832  97.1990 294.5362 0008541 105.6886  29.9452 15.38954118 98804
Source of the keplerian elements: AFSPC